ABS-3A (40424 NORAD) Tracking and Keplerian Element Data

This shows tracking and keplerian element data for the satellite.

Feedback or suggestion? Click here.




ElementValue
Catalog40424
NameABS-3A
Epoch Orbit2403
Epoch Day261.86757997
Epoch Year2021
RAAN185.538
Inclination0.0035
Eccentricity0.0002239
Argument of Perigee258.8906
Mean Anonmoly222.9121
Mean Motion1.00272411
Decay Rate-5E-07
L11 40424U 15010A 21261.86757997 -.00000050 00000-0 00000-0 0 9997
L22 40424 0.0035 185.5380 0002239 258.8906 222.9121 1.00272411 24034

Live tracking and technical data element details for ABS-3A (NORAD 40424). ABS-3A can be tracked NOW for your location showing map with azimuth and elevation plus other details from your city location.

Track the satellite on the map from your city or location and see movement details for azimuth, elevation, latitude, longitude, range, height, and movement on the map or in text.







IsCatalogInMostPopularTable: catalog: 40424, numindb: 530
Update: records affected: 1



GetName: 40424 ABS-3A

Hit Count: updated at: Fri, 24 Sep 2021 17:21:51 GMT